Satellite: SO-50
Catalog number: 27607
Epoch time:      12158.77812160
Element set:     780
Inclination:      064.5585 deg
RA of node:       326.5635 deg
Eccentricity:    0.0083184
Arg of perigee:   250.7082 deg
Mean anomaly:     108.4997 deg
Mean motion:   14.72384959 rev/day
Decay rate:       7.96e-06 rev/day^2
Epoch rev:           50843
Checksum:              344

Satellite: CO-55
Catalog number: 27844
Epoch time:      12157.58548423
Element set:    0390
Inclination:      098.7024 deg
RA of node:       166.1322 deg
Eccentricity:    0.0008804
Arg of perigee:   256.4896 deg
Mean anomaly:     103.5313 deg
Mean motion:   14.21023216 rev/day
Decay rate:       1.78e-06 rev/day^2
Epoch rev:           46324
Checksum:              296

Satellite: CO-57
Catalog number: 27848
Epoch time:      12158.57303239
Element set:     341
Inclination:      098.7101 deg
RA of node:       166.4338 deg
Eccentricity:    0.0008599
Arg of perigee:   258.1412 deg
Mean anomaly:     101.8802 deg
Mean motion:   14.20775533 rev/day
Decay rate:       1.74e-06 rev/day^2
Epoch rev:           46332
Checksum:              306

Satellite: AO-51
Catalog number: 28375
Epoch time:      12158.73390234
Element set:     284
Inclination:      098.1467 deg
RA of node:       124.4969 deg
Eccentricity:    0.0084694
Arg of perigee:   072.3886 deg
Mean anomaly:     288.6528 deg
Mean motion:   14.40948182 rev/day
Decay rate:       1.85e-06 rev/day^2
Epoch rev:           41726
Checksum:              352

Satellite: CP3
Catalog number: 31129
Epoch time:      12157.92724919
Element set:    0184
Inclination:      097.8794 deg
RA of node:       166.3655 deg
Eccentricity:    0.0101907
Arg of perigee:   157.5697 deg
Mean anomaly:     203.0042 deg
Mean motion:   14.53064923 rev/day
Decay rate:       8.55e-06 rev/day^2
Epoch rev:           27234
Checksum:              318

Satellite: CO-65
Catalog number: 32785
Epoch time:      12157.63920896
Element set:    0328
Inclination:      097.8013 deg
RA of node:       218.9636 deg
Eccentricity:    0.0015812
Arg of perigee:   099.1034 deg
Mean anomaly:     261.1982 deg
Mean motion:   14.82966092 rev/day
Decay rate:      1.230e-05 rev/day^2
Epoch rev:           22205
Checksum:              316

Satellite: PRISM
Catalog number: 33493
Epoch time:      12158.74114930
Element set:     761
Inclination:      098.1689 deg
RA of node:       299.0557 deg
Eccentricity:    0.0018215
Arg of perigee:   334.8719 deg
Mean anomaly:     025.1626 deg
Mean motion:   14.83847780 rev/day
Decay rate:      2.321e-05 rev/day^2
Epoch rev:           18220
Checksum:              313

Satellite: SOHLA-1
Catalog number: 33496
Epoch time:      12158.48581241
Element set:     744
Inclination:      098.1037 deg
RA of node:       270.2923 deg
Eccentricity:    0.0007649
Arg of perigee:   077.6822 deg
Mean anomaly:     282.5243 deg
Mean motion:   14.69968311 rev/day
Decay rate:       5.06e-06 rev/day^2
Epoch rev:           18067
Checksum:              319

Satellite: SO-67
Catalog number: 35870
Epoch time:      12158.74273696
Element set:      22
Inclination:      097.2334 deg
RA of node:       194.8575 deg
Eccentricity:    0.0002030
Arg of perigee:   156.9288 deg
Mean anomaly:     313.1395 deg
Mean motion:   15.23747233 rev/day
Decay rate:      4.553e-05 rev/day^2
Epoch rev:           15102
Checksum:              309

Satellite: TISAT-1
Catalog number: 36799
Epoch time:      12158.67269121
Element set:      40
Inclination:      098.0632 deg
RA of node:       234.9305 deg
Eccentricity:    0.0014312
Arg of perigee:   200.8856 deg
Mean anomaly:     159.1799 deg
Mean motion:   14.81924012 rev/day
Decay rate:      1.718e-05 rev/day^2
Epoch rev:           10293
Checksum:              298

Satellite: STUDSAT
Catalog number: 36801
Epoch time:      12158.48787298
Element set:     408
Inclination:      098.0706 deg
RA of node:       235.4073 deg
Eccentricity:    0.0012116
Arg of perigee:   189.0476 deg
Mean anomaly:     171.0541 deg
Mean motion:   14.84209386 rev/day
Decay rate:      4.617e-05 rev/day^2
Epoch rev:           10293
Checksum:              305

Satellite: FO-69
Catalog number: 37227
Epoch time:      12158.13500643
Element set:    0200
Inclination:      071.9688 deg
RA of node:       336.3477 deg
Eccentricity:    0.0017165
Arg of perigee:   335.8826 deg
Mean anomaly:     024.1530 deg
Mean motion:   14.77071144 rev/day
Decay rate:       5.10e-06 rev/day^2
Epoch rev:           03446
Checksum:              288

Satellite: FO-70
Catalog number: 37380
Epoch time:      12158.13870081
Element set:    0202
Inclination:      071.9726 deg
RA of node:       336.8852 deg
Eccentricity:    0.0017865
Arg of perigee:   333.0252 deg
Mean anomaly:     026.9991 deg
Mean motion:   14.76822960 rev/day
Decay rate:       4.95e-06 rev/day^2
Epoch rev:           03435
Checksum:              313

Satellite: ALMASAT-1
Catalog number: 38078
Epoch time:      12158.82356546
Element set:     274
Inclination:      069.4981 deg
RA of node:       340.7323 deg
Eccentricity:    0.0761625
Arg of perigee:   261.6474 deg
Mean anomaly:     089.7685 deg
Mean motion:   14.08908574 rev/day
Decay rate:     1.3865e-04 rev/day^2
Epoch rev:            1609
Checksum:              348

